Wind_Speed
10 8 8 7 6 5 5 6 6 6 6 6 5 5 4 4 4 5 4 4 4 4 3 3 3 3 3 4 5 6 7 7 7 6 6 6 6 6 6 6 7 7 7 7 7 6 5 5 5
11 10 9 8 7 7 6 6 6 7 7 6 6 5 5 4 4 5 5 4 5 4 4 4 4 4 4 5 5 6 7 7 7 7 7 7 6 7 7 8 8 7 7 7 7 7 6 6 6
13 12 10 10 10 9 8 7 7 7 7 7 6 5 5 5 6 6 5 5 5 5 4 4 4 4 4 5 5 6 7 7 7 7 7 7 7 7 8 8 8 8 8 8 8 7 7 7 7
14 13 12 11 11 11 9 8 7 6 6 6 6 5 5 5 5 5 5 5 5 5 4 4 3 3 4 4 5 6 7 7 7 7 7 8 8 8 8 8 8 8 8 7 7 7 7 7 8
16 15 14 12 12 11 10 9 8 7 7 7 6 5 4 3 4 4 4 5 4 4 4 3 3 4 4 5 6 7 8 8 8 8 8 8 9 8 8 7 8 7 7 7 7 7 7 7 8
18 16 15 14 14 13 12 10 9 8 8 7 6 5 5 4 4 4 3 4 4 4 4 3 4 4 4 5 6 7 8 8 8 8 8 8 8 8 8 8 7 7 7 7 8 7 7 8 8
19 18 16 15 14 14 12 11 9 8 8 7 6 5 4 5 4 3 3 3 3 3 3 3 4 4 4 5 6 7 8 9 9 8 8 8 8 8 8 8 8 7 8 8 8 8 8 8 8
20 19 17 17 16 14 12 12 11 10 9 8 7 5 4 4 4 3 3 3 3 3 3 3 3 3 4 5 6 8 9 9 9 9 9 8 8 8 8 8 8 8 9 9 8 8 8 9 9
21 20 19 19 18 15 13 12 12 11 9 8 7 6 5 5 4 3 2 2 2 3 3 2 3 3 4 6 7 8 8 8 8 9 9 9 8 9 9 9 9 9 9 9 8 8 8 8 8
22 22 22 20 18 16 14 13 13 11 9 8 7 6 5 5 4 4 3 2 2 2 2 3 3 4 4 5 7 8 8 8 8 8 9 9 9 9 9 9 9 9 9 8 8 8 8 7 8
23 23 23 21 18 17 15 14 14 12 10 9 8 7 6 6 5 4 3 2 2 2 2 2 3 3 4 6 7 8 8 8 9 9 9 9 10 10 10 10 9 9 8 8 8 7 7 7 7
24 23 22 21 18 17 16 15 15 14 12 10 9 8 7 7 7 5 3 2 2 2 2 2 3 4 5 6 7 7 8 9 9 9 10 10 10 10 11 10 9 8 7 7 7 7 7 7 7
25 24 23 20 19 18 17 16 15 14 13 12 10 9 8 8 6 5 3 1 1 1 2 2 3 4 5 6 7 7 8 8 9 10 10 11 11 11 11 10 9 8 8 7 7 7 7 7 7
24 24 23 21 20 19 18 17 16 15 13 12 12 10 9 8 7 5 3 2 1 1 1 2 3 4 5 5 6 7 8 9 9 10 11 12 11 11 10 10 9 8 8 7 7 6 6 6 6
24 23 23 22 20 20 19 18 17 15 15 13 12 11 10 8 8 6 4 3 2 1 1 1 2 4 5 6 6 7 8 9 10 11 12 12 12 11 11 10 10 9 8 7 6 6 5 4 4
22 23 23 22 21 21 20 19 17 16 15 14 13 12 11 9 7 6 5 3 2 1 0 1 2 4 4 5 6 7 8 9 10 11 11 12 12 12 12 11 10 10 8 7 6 6 5 4 4
22 22 22 22 22 21 21 19 18 17 16 14 13 12 11 10 8 7 6 4 2 1 0 1 2 3 4 5 6 7 8 10 10 11 11 12 12 12 12 12 11 11 10 8 7 6 5 4 3
21 22 23 23 22 22 21 20 19 17 16 15 15 14 12 10 9 8 7 5 3 2 1 1 2 3 3 4 6 7 8 10 10 11 12 12 13 13 13 12 12 12 11 10 9 8 6 4 3
22 22 24 23 23 23 23 21 20 18 17 15 15 13 13 11 10 9 7 6 4 3 2 1 1 2 3 4 5 7 8 10 11 11 12 13 13 13 13 13 13 13 13 11 11 10 8 6 5
23 22 22 22 23 23 22 21 20 20 18 16 15 14 13 12 11 10 9 7 5 4 3 2 2 2 3 3 5 6 8 9 10 11 12 13 13 14 14 14 14 14 14 13 13 12 11 9 7
23 22 21 22 23 22 21 20 21 20 19 17 16 15 13 13 12 11 10 8 7 6 4 3 2 2 2 3 4 6 7 8 9 11 11 12 13 14 14 14 14 15 15 14 14 14 13 11 10
21 22 22 22 22 22 21 20 20 20 18 17 16 15 14 13 12 12 10 9 8 6 5 4 4 3 3 3 4 5 6 8 9 10 11 12 13 13 14 14 15 15 15 15 14 14 13 12 11
20 21 21 22 21 22 21 20 19 20 19 17 16 15 14 14 12 12 11 10 9 7 6 6 5 4 3 3 3 4 5 7 8 9 10 11 12 13 14 14 15 15 16 15 15 15 14 14 12
18 19 18 20 20 20 20 19 19 18 18 17 17 16 15 14 13 13 12 11 10 9 8 7 6 4 3 2 2 3 4 6 7 8 9 10 11 13 14 14 14 15 15 15 15 15 14 14 14
16 17 17 18 19 18 18 19 18 16 17 16 16 16 15 15 14 13 12 12 11 10 9 8 7 5 4 3 2 2 3 4 5 6 7 9 10 11 12 13 14 14 14 15 15 15 14 14 14
14 15 16 15 15 14 17 18 18 17 16 16 16 16 17 16 14 14 14 13 12 11 10 9 7 6 5 4 3 2 2 3 4 5 6 7 8 10 11 12 12 13 13 14 14 14 14 14 13
13 13 15 14 13 12 14 16 17 18 16 17 16 16 16 16 16 15 14 14 13 12 11 10 9 7 6 5 4 3 1 1 2 3 4 6 7 8 9 10 10 11 12 12 13 13 13 13 13
13 14 13 13 13 13 13 13 15 16 17 17 17 16 15 16 16 15 15 15 15 14 12 11 10 8 7 6 5 4 2 1 1 2 3 4 5 7 8 9 9 10 10 11 12 12 12 12 13
13 14 14 13 13 13 13 13 13 13 15 16 17 16 16 16 16 15 15 15 15 14 13 12 11 10 8 7 6 5 4 2 1 2 3 4 4 5 7 8 8 9 10 10 11 11 12 12 12
12 14 15 14 12 10 11 12 13 13 14 15 15 15 16 16 16 16 15 15 15 15 14 13 12 11 10 9 7 6 6 4 3 2 3 3 4 5 6 7 8 8 9 9 10 10 11 11 12
Wind_Direction
241 246 241 236 239 244 248 244 245 242 243 243 245 242 232 233 240 243 247 250 258 268 281 295 299 303 311 322 327 332 334 333 332 329 328 325 326 323 316 313 313 313 312 308 301 291 285 274 264
240 242 238 234 236 240 246 249 252 246 241 241 241 241 243 244 252 258 260 261 263 270 280 288 293 301 316 324 327 332 336 337 335 332 327 321 320 317 315 312 312 310 307 306 299 288 280 271 264
240 239 236 234 237 237 242 251 253 246 240 241 238 239 249 254 257 263 266 266 270 276 280 285 289 301 317 326 330 333 335 334 331 328 325 322 318 314 312 310 311 308 304 302 298 289 277 272 267
236 236 234 236 237 239 239 254 259 242 236 234 232 239 248 252 258 264 268 271 274 282 282 283 289 302 316 325 329 335 336 334 331 329 326 323 322 317 312 309 310 309 306 303 299 292 282 273 267
233 234 233 237 240 240 244 246 248 241 234 234 232 238 246 250 260 270 285 283 281 282 288 287 293 304 314 324 331 334 335 334 334 331 329 325 323 320 316 312 312 310 308 306 302 295 286 278 269
231 231 231 235 241 241 237 240 243 244 236 233 230 234 241 249 259 272 282 290 296 292 288 287 298 307 315 323 329 332 336 336 336 334 330 327 325 322 318 313 311 309 308 306 303 295 289 282 270
230 230 231 234 238 240 234 235 239 237 237 233 230 235 235 241 250 264 283 295 295 289 282 282 295 312 321 327 332 337 338 336 334 332 329 326 325 323 320 317 313 309 307 305 302 296 290 283 275
228 230 231 234 236 236 233 235 235 235 237 235 233 236 234 237 242 257 273 288 290 288 290 280 292 315 324 331 336 339 338 338 338 335 332 331 329 327 325 320 316 310 307 304 302 296 289 281 275
226 227 229 233 232 234 232 235 238 235 230 234 237 236 238 241 248 256 271 278 293 301 306 300 314 332 336 335 338 341 342 342 341 338 336 334 331 329 325 320 315 310 306 303 299 295 288 282 275
224 226 228 232 230 232 233 233 236 234 228 228 232 239 236 238 245 250 259 276 301 310 321 319 333 345 345 345 346 349 349 347 345 340 337 335 331 327 324 320 316 311 307 303 300 296 289 283 276
224 225 228 230 229 229 230 232 230 231 230 226 229 235 236 236 241 251 253 274 306 314 326 328 338 348 353 351 350 354 355 352 348 344 340 337 334 331 329 325 321 318 312 306 300 297 290 283 277
225 225 228 230 229 227 228 229 230 229 229 227 227 232 234 237 240 247 255 280 290 303 332 349 2 1 358 356 357 360 360 356 352 350 346 341 338 335 332 328 325 321 315 308 301 296 291 285 280
226 225 228 228 227 225 226 226 227 226 226 228 228 230 231 233 237 242 250 261 283 318 329 359 11 7 5 6 7 5 2 358 354 353 352 348 344 341 338 336 332 329 324 320 312 299 294 290 284
225 225 226 225 225 224 224 226 227 227 225 229 228 230 231 232 230 237 238 252 277 300 323 9 14 14 15 15 9 5 3 3 1 359 357 354 351 350 348 347 343 340 336 333 327 314 303 298 292
225 223 223 223 223 222 222 225 227 227 225 225 226 228 227 228 233 233 231 245 259 280 330 21 16 19 19 17 11 6 6 7 7 4 2 3 3 2 359 357 354 352 347 344 340 332 322 312 307
222 221 221 221 221 221 221 224 226 227 227 227 226 226 222 223 220 218 223 233 246 258 66 35 28 25 23 21 15 11 10 10 10 9 10 11 10 9 7 5 3 1 0 356 353 347 336 328 324
221 219 220 221 220 221 222 222 224 226 227 227 224 221 219 219 215 213 218 229 231 217 114 62 44 34 29 24 18 15 16 17 17 17 17 17 14 14 13 14 14 15 15 10 5 1 348 341 342
219 218 218 220 220 220 221 222 221 221 222 221 220 219 218 217 217 217 214 220 212 208 178 88 54 40 37 31 24 23 26 26 25 24 23 22 23 23 23 24 25 26 24 22 18 17 14 16 22
216 217 218 218 220 220 223 222 222 222 220 221 220 219 217 224 219 217 217 213 203 201 186 161 88 57 45 40 33 34 35 33 31 30 29 30 30 30 30 30 32 32 32 30 29 31 35 41 47
215 217 219 217 216 218 221 221 220 220 221 222 221 221 220 222 217 215 215 210 199 197 186 171 133 86 66 52 43 41 41 38 35 34 36 35 35 35 36 37 37 37 38 38 39 41 45 48 52
216 218 218 217 217 219 217 217 220 221 221 221 219 221 223 222 217 215 211 203 197 196 195 182 155 121 90 65 54 51 50 42 40 39 39 39 40 41 41 41 43 43 43 43 44 46 50 51 53
216 217 216 216 214 214 215 217 218 221 221 220 221 221 222 218 213 210 207 204 199 197 194 180 163 139 111 82 69 63 57 50 46 44 43 42 43 44 44 44 45 46 46 46 46 47 50 50 53
214 213 213 215 217 217 216 219 217 220 220 218 218 219 217 215 216 213 211 208 201 198 190 179 169 153 133 104 84 74 66 55 49 47 46 46 45 45 45 45 46 45 45 46 46 46 49 49 50
211 211 209 212 216 217 214 220 221 218 216 217 218 218 220 220 221 219 215 210 201 198 192 187 181 171 159 136 106 89 72 58 52 48 46 48 46 46 45 45 45 44 44 45 45 45 47 46 48
211 206 207 213 217 217 215 221 223 222 220 218 217 219 222 222 221 217 212 207 202 201 197 195 191 185 177 166 146 115 81 60 52 47 46 47 46 45 44 44 45 44 44 44 44 44 44 46 48
205 203 204 211 217 218 221 227 222 225 223 219 219 221 220 220 220 217 211 209 207 203 200 200 196 193 190 190 184 160 105 60 47 44 43 44 42 40 40 41 42 41 41 42 42 42 43 44 45
203 205 207 209 213 216 225 229 228 225 224 221 221 222 219 219 219 213 211 212 210 205 203 203 200 200 200 201 202 196 167 67 39 35 34 37 35 34 35 36 36 36 37 37 39 40 41 42 42
203 205 207 209 211 213 219 226 228 225 225 223 221 224 220 217 216 212 212 213 209 206 205 205 204 205 208 209 212 213 213 237 354 9 15 20 24 28 29 30 30 31 31 32 34 34 36 36 35
207 209 210 208 211 211 214 217 219 223 219 217 220 220 220 215 210 210 212 212 209 208 209 208 208 210 213 216 220 222 228 241 277 317 347 0 7 13 19 22 23 24 26 26 29 29 30 29 26
210 212 211 207 203 207 212 204 210 219 218 218 219 217 214 212 211 212 215 216 213 211 213 212 212 214 217 221 225 229 234 241 257 285 316 336 347 357 6 12 15 15 15 16 19 23 22 20 18
Height
5879 5880 5881 5883 5884 5885 5884 5884 5883 5884 5885 5885 5885 5886 5886 5887 5889 5891 5889 5889 5889 5889 5889 5889 5889 5889 5889 5889 5888 5888 5887 5886 5886 5885 5885 5884 5884 5883 5883 5882 5882 5881 5881 5880 5880 5880 5879 5879 5879
5878 5879 5881 5882 5883 5883 5883 5883 5883 5884 5884 5884 5885 5886 5886 5886 5887 5888 5887 5888 5889 5889 5889 5889 5889 5889 5888 5888 5888 5887 5886 5886 5885 5884 5884 5883 5883 5882 5882 5881 5881 5880 5880 5879 5878 5878 5878 5878 5878
5876 5878 5880 5881 5881 5881 5882 5881 5882 5882 5883 5884 5885 5886 5886 5886 5887 5887 5887 5888 5888 5888 5888 5888 5888 5888 5888 5888 5887 5887 5886 5885 5884 5884 5883 5882 5882 5881 5880 5880 5879 5879 5878 5877 5877 5876 5876 5876 5876
5875 5877 5878 5880 5879 5879 5880 5881 5881 5881 5882 5883 5884 5885 5885 5886 5886 5886 5886 5887 5887 5888 5888 5887 5887 5887 5887 5887 5886 5886 5885 5884 5883 5883 5882 5881 5880 5880 5879 5878 5877 5877 5876 5876 5875 5875 5875 5874 5875
5872 5874 5876 5877 5877 5878 5879 5879 5879 5880 5881 5882 5883 5884 5884 5885 5886 5886 5886 5886 5887 5887 5887 5887 5887 5887 5887 5886 5886 5885 5884 5883 5882 5881 5881 5880 5879 5878 5877 5876 5876 5875 5874 5874 5873 5873 5873 5873 5873
5871 5872 5874 5875 5875 5876 5878 5878 5878 5880 5880 5881 5883 5884 5884 5885 5885 5885 5885 5886 5886 5886 5886 5886 5886 5886 5886 5886 5885 5884 5883 5882 5881 5880 5879 5879 5877 5877 5876 5875 5874 5873 5873 5872 5872 5871 5871 5871 5871
5868 5870 5871 5872 5873 5875 5876 5877 5878 5879 5880 5881 5882 5883 5883 5884 5884 5885 5885 5885 5885 5886 5886 5886 5886 5885 5885 5885 5884 5883 5882 5881 5880 5879 5878 5877 5876 5875 5874 5873 5872 5871 5871 5870 5870 5869 5869 5869 5869
5865 5868 5869 5869 5871 5873 5874 5876 5877 5877 5879 5880 5881 5882 5883 5884 5884 5884 5884 5885 5885 5885 5885 5885 5885 5885 5885 5884 5883 5883 5882 5880 5879 5878 5877 5876 5875 5874 5872 5871 5870 5869 5869 5868 5867 5867 5867 5866 5866
5861 5865 5866 5867 5869 5871 5873 5874 5875 5876 5877 5879 5880 5881 5882 5883 5883 5884 5884 5885 5885 5885 5885 5885 5884 5884 5884 5883 5883 5882 5880 5879 5878 5877 5876 5875 5873 5872 5871 5870 5868 5867 5867 5866 5865 5865 5864 5864 5864
5858 5861 5862 5864 5866 5868 5871 5872 5874 5875 5876 5878 5879 5880 5881 5882 5883 5883 5884 5884 5884 5884 5884 5884 5884 5884 5883 5883 5882 5881 5880 5878 5877 5876 5875 5873 5872 5871 5869 5868 5866 5865 5864 5864 5863 5862 5862 5862 5862
5854 5857 5859 5861 5863 5866 5869 5870 5872 5874 5875 5877 5878 5880 5880 5881 5882 5883 5883 5883 5884 5884 5884 5883 5883 5883 5882 5882 5881 5880 5879 5877 5876 5875 5874 5872 5871 5869 5868 5866 5864 5863 5862 5861 5861 5860 5860 5860 5860
5851 5853 5855 5859 5861 5864 5866 5868 5870 5872 5874 5876 5877 5878 5880 5880 5881 5882 5882 5883 5883 5883 5883 5883 5883 5882 5882 5881 5880 5879 5878 5877 5875 5874 5873 5871 5869 5868 5866 5864 5863 5861 5860 5859 5859 5858 5858 5857 5857
5847 5850 5853 5856 5859 5862 5864 5866 5868 5870 5873 5874 5876 5877 5878 5879 5880 5881 5881 5882 5882 5883 5883 5883 5882 5882 5881 5881 5880 5879 5878 5876 5875 5874 5872 5870 5868 5866 5865 5863 5861 5860 5859 5858 5857 5856 5856 5855 5855
5843 5847 5850 5853 5856 5859 5862 5864 5867 5868 5871 5873 5874 5876 5877 5878 5879 5880 5881 5881 5882 5882 5882 5882 5882 5882 5881 5881 5880 5879 5877 5876 5875 5873 5871 5869 5867 5865 5863 5862 5860 5858 5857 5856 5855 5854 5853 5853 5853
5840 5844 5847 5850 5854 5856 5860 5862 5865 5867 5868 5871 5873 5875 5876 5877 5878 5879 5880 5881 5882 5882 5882 5882 5882 5882 5881 5881 5880 5879 5878 5876 5875 5873 5871 5869 5867 5865 5863 5861 5859 5857 5856 5854 5853 5852 5852 5851 5851
5836 5840 5844 5848 5851 5854 5859 5860 5862 5865 5867 5869 5871 5873 5875 5876 5877 5878 5879 5880 5881 5881 5882 5882 5882 5882 5881 5881 5880 5879 5878 5876 5875 5873 5871 5869 5867 5865 5863 5861 5859 5857 5855 5853 5852 5851 5850 5850 5850
5833 5837 5841 5845 5848 5851 5855 5858 5860 5863 5865 5867 5869 5871 5873 5875 5876 5878 5879 5880 5880 5881 5881 5882 5882 5881 5881 5881 5880 5879 5878 5877 5875 5873 5871 5870 5867 5865 5863 5861 5859 5856 5855 5853 5852 5850 5849 5849 5849
5831 5834 5838 5841 5845 5849 5852 5855 5857 5860 5863 5865 5867 5870 5871 5874 5875 5877 5878 5879 5880 5880 5881 5882 5882 5881 5881 5881 5881 5880 5879 5877 5876 5874 5872 5870 5868 5866 5863 5861 5859 5857 5855 5853 5852 5850 5849 5848 5848
5828 5831 5834 5838 5842 5846 5849 5852 5855 5858 5861 5863 5865 5868 5869 5872 5874 5875 5877 5878 5879 5880 5881 5881 5882 5882 5882 5881 5881 5880 5880 5878 5877 5875 5873 5871 5869 5867 5865 5862 5860 5858 5856 5854 5853 5851 5850 5849 5849
5824 5827 5831 5835 5839 5843 5846 5849 5852 5856 5859 5861 5864 5866 5868 5870 5872 5873 5875 5877 5878 5880 5881 5881 5882 5882 5882 5882 5882 5881 5880 5879 5878 5876 5875 5873 5871 5868 5866 5864 5862 5860 5858 5856 5854 5853 5852 5851 5850
5822 5825 5829 5832 5836 5839 5843 5847 5850 5853 5856 5859 5862 5864 5867 5869 5871 5872 5874 5876 5878 5879 5880 5881 5881 5882 5882 5882 5882 5882 5881 5881 5879 5878 5876 5874 5872 5870 5868 5866 5864 5862 5860 5859 5857 5855 5854 5853 5852
5820 5823 5826 5829 5833 5837 5841 5844 5848 5850 5853 5857 5860 5862 5865 5867 5869 5871 5873 5875 5877 5878 5879 5880 5881 5882 5882 5883 5883 5883 5882 5882 5881 5879 5878 5876 5874 5872 5870 5868 5867 5865 5863 5861 5860 5858 5857 5856 5855
5818 5821 5825 5828 5831 5835 5838 5842 5845 5848 5851 5855 5858 5861 5863 5866 5868 5870 5872 5874 5876 5877 5879 5880 5881 5882 5883 5883 5883 5883 5883 5883 5882 5881 5880 5878 5876 5874 5873 5871 5869 5868 5866 5864 5862 5861 5859 5858 5857
5817 5820 5823 5826 5829 5833 5836 5840 5842 5845 5849 5853 5856 5859 5861 5864 5866 5868 5871 5873 5875 5876 5878 5880 5881 5882 5883 5883 5884 5884 5884 5884 5883 5882 5881 5880 5878 5877 5875 5873 5872 5870 5869 5867 5865 5864 5862 5861 5860
5816 5819 5823 5825 5828 5831 5834 5837 5841 5844 5847 5850 5854 5857 5859 5861 5864 5867 5869 5871 5873 5875 5877 5879 5880 5882 5883 5883 5884 5884 5885 5884 5884 5883 5883 5881 5880 5879 5877 5876 5874 5873 5871 5870 5868 5867 5865 5864 5862
5815 5819 5823 5825 5827 5830 5832 5835 5839 5842 5844 5848 5851 5854 5857 5859 5862 5865 5867 5870 5872 5874 5876 5878 5880 5881 5882 5883 5884 5884 5885 5885 5885 5884 5884 5883 5882 5880 5879 5878 5876 5875 5874 5872 5871 5869 5868 5866 5865
5815 5817 5820 5823 5825 5828 5831 5834 5837 5839 5842 5846 5849 5851 5855 5857 5860 5863 5866 5868 5871 5873 5875 5877 5879 5880 5882 5883 5884 5884 5885 5885 5885 5885 5884 5883 5883 5882 5880 5879 5878 5877 5876 5874 5873 5871 5870 5869 5867
5814 5816 5818 5821 5824 5826 5829 5832 5835 5837 5841 5844 5847 5849 5852 5855 5858 5861 5863 5866 5869 5871 5873 5875 5877 5879 5881 5882 5883 5884 5885 5885 5885 5885 5885 5884 5883 5883 5882 5880 5879 5878 5877 5876 5874 5873 5872 5871 5869
5814 5816 5818 5820 5822 5825 5827 5832 5833 5835 5838 5841 5844 5846 5850 5853 5856 5859 5862 5864 5867 5869 5871 5873 5876 5878 5880 5881 5882 5883 5884 5885 5885 5885 5885 5884 5884 5883 5882 5881 5880 5879 5878 5877 5875 5874 5873 5872 5871
5812 5814 5817 5819 5821 5823 5824 5830 5831 5834 5836 5839 5842 5845 5847 5851 5854 5857 5859 5862 5865 5867 5870 5872 5874 5876 5878 5880 5881 5882 5883 5884 5884 5884 5884 5884 5883 5883 5882 5881 5881 5880 5879 5877 5876 5875 5874 5873 5871